Home > Weather > Beja > Past weeks

Flag for Portugal Past Weather in Beja, Portugal — Yesterday and Last 2 Weeks

Now
70 °F

Passing clouds.


Feels Like: 70 °F
Forecast: 48 / 70 °F
Wind: 9 mph from West

Location: Beja Airport

Current Time: May 26, 2016 at 7:32:22 PM

Latest Report: May 26, 2016 at 6:00 PM


Visibility: N/A

Pressure: 29.92 "Hg

Humidity: 43%

Dew Point: 46 °F

Location of BejaLocation

Past Weather in Beja — Graph

°F

Beja Temperature Yesterday

Maximum temperature yesterday: 72 °F (at 4:00 PM)
Minimum temperature yesterday: 55 °F (at 1:00 AM)
Average temperature yesterday: 62 °F

High & Low Weather Summary for the Past Weeks

 TemperatureHumidityPressure
High88 °F (May 20, 5:00 PM)100% (May 12, 12:00 AM)30.21 "Hg (May 12, 12:00 AM)
Low48 °F (May 13, 4:00 AM)24% (May 23, 3:00 PM)29.65 "Hg (May 11, 6:00 PM)
Average63 °F75%30.04 "Hg
* Reported May 11 6:00 PM — May 26 6:00 PM, Beja, Weather by CustomWeather, © 2016

Note: Actual official high and low records may vary slightly from our data, if they occured in-between our weather recording intervals... More about our weather records

Advertising

Beja Weather History for the Previous 24 Hours

Scroll right to see more
 ConditionsComfort  
Time TempWeatherWind HumidityBarometerVisibility
6:00 PM
Thu, May 26
70 °FPassing clouds.9 mph43%29.92 "HgN/A
5:00 PM72 °FPassing clouds.13 mph41%29.92 "HgN/A
4:00 PM72 °FPassing clouds.9 mph38%29.92 "HgN/A
3:00 PM72 °FScattered clouds.9 mph38%29.92 "HgN/A
2:00 PM70 °FScattered clouds.10 mph43%29.92 "HgN/A
1:00 PM68 °FScattered clouds.6 mph46%29.95 "HgN/A
12:00 PM68 °FPassing clouds.8 mph49%29.95 "HgN/A
11:00 AM66 °FScattered clouds.6 mph52%29.95 "HgN/A
10:00 AM63 °FScattered clouds.5 mph68%29.95 "HgN/A
9:00 AM61 °FScattered clouds.6 mph83%29.95 "HgN/A
8:00 AM57 °FFog.13 mph94%29.92 "HgN/A
7:00 AM55 °FFog.3 mph100%29.92 "Hg6 mi
6:00 AM55 °FPassing clouds.5 mph100%29.89 "HgN/A
5:00 AM57 °FPassing clouds.2 mph94%29.89 "HgN/A
4:00 AM55 °FPassing clouds.5 mph100%29.89 "HgN/A
3:00 AM57 °FPassing clouds.5 mph88%29.89 "HgN/A
2:00 AM57 °FPassing clouds.6 mph88%29.92 "HgN/A
1:00 AM57 °FPassing clouds.6 mph88%29.92 "HgN/A
12:00 AM59 °FPassing clouds.8 mph77%29.92 "HgN/A
11:00 PM
Wed, May 25
59 °FPassing clouds.7 mph77%29.92 "HgN/A
10:00 PM63 °FPassing clouds.7 mph64%29.92 "HgN/A
9:00 PM64 °FScattered clouds.N/A64%29.89 "HgN/A
8:00 PM64 °FScattered clouds.9 mph64%29.89 "HgN/A
7:00 PM68 °FScattered clouds.12 mph56%29.89 "HgN/A
Weather by CustomWeather, © 2016

See weather overviewHow to use our weather pages